Wetbulb
44.27 44.31 44.23 44.28 44.85 44.49 44.22 44.26 44.47 44.56 44.90 44.82 45.23 44.99 44.88 45.69 45.78 46.29 47.11 48.04 47.59 47.54 48.05 48.49 48.40 49.02 48.05 48.28 48.86 49.15 50.02 51.54 49.52 52.13 52.11 51.71 49.55 49.35 49.65 50.17 50.28 49.50 50.45
43.98 44.28 43.70 43.72 43.74 42.97 43.29 44.05 44.34 44.61 45.23 45.23 45.39 45.11 45.41 46.41 44.53 46.82 47.31 47.47 47.20 46.73 47.33 47.70 47.42 47.77 46.38 46.97 47.16 46.08 47.65 49.62 50.90 48.94 49.95 48.65 48.10 49.29 49.06 48.55 49.33 49.91 48.99
43.71 43.83 43.00 42.94 42.86 42.88 43.04 43.74 44.13 44.40 44.71 44.96 45.21 45.39 45.69 45.55 43.36 46.61 47.65 46.99 46.66 46.43 46.88 46.79 47.02 46.82 45.64 46.04 46.46 45.96 46.28 47.56 49.68 50.69 47.81 48.76 48.43 48.54 47.87 48.59 48.34 47.32 47.98
43.70 43.30 42.57 42.70 43.16 43.08 43.34 43.94 44.40 44.91 44.55 44.87 45.02 45.52 45.33 44.03 43.70 44.63 47.31 46.56 46.59 46.93 47.15 47.18 47.00 46.32 44.81 45.22 45.66 45.70 45.68 45.65 47.67 50.22 47.98 46.75 47.16 48.38 48.38 46.31 44.74 44.88 43.50
43.32 42.52 42.81 43.43 43.95 44.40 44.59 44.66 44.98 44.95 44.77 44.73 44.86 44.59 44.50 43.92 44.86 43.74 46.54 44.86 46.10 46.19 43.03 43.21 44.18 46.11 47.64 47.70 46.10 45.66 45.67 45.59 46.64 48.30 47.24 46.40 46.42 46.82 45.28 46.44 43.30 42.71 42.37
42.35 42.76 43.91 44.41 44.84 44.50 44.51 44.80 44.48 44.21 43.76 44.60 43.69 43.50 41.64 43.39 45.15 45.88 46.01 46.88 45.73 42.46 39.53 39.55 40.65 43.79 44.39 45.97 47.42 48.25 47.76 46.10 45.35 47.96 47.20 46.01 46.62 46.40 46.80 44.71 43.05 41.81 39.99
42.58 44.17 44.73 44.66 44.73 44.50 44.68 44.44 43.62 42.76 42.88 43.13 42.61 42.17 40.55 40.67 44.47 44.87 45.38 47.15 45.82 40.12 38.63 38.35 40.04 42.20 42.45 41.35 44.46 47.55 47.66 48.20 48.25 47.13 47.58 46.82 46.30 47.04 47.13 45.27 45.13 43.18 39.96
43.29 44.13 44.87 44.56 44.21 44.18 43.29 42.47 42.85 42.03 42.87 44.75 46.37 42.37 39.86 41.87 44.11 43.76 45.70 47.31 43.81 43.31 41.52 39.81 40.01 41.14 41.65 42.65 44.25 45.66 46.71 47.54 47.11 48.57 48.88 48.07 47.92 48.19 48.14 47.72 45.47 41.76 41.94
43.57 43.91 44.58 44.38 43.46 42.52 41.31 40.88 41.10 41.38 41.65 42.32 46.91 45.50 44.45 44.09 43.70 43.01 44.34 47.76 45.13 44.03 41.86 40.43 42.40 43.06 43.07 43.34 45.51 45.69 46.51 46.50 47.98 47.00 46.01 44.98 44.16 45.57 48.23 46.41 43.23 42.68 42.79
44.76 46.38 44.40 46.15 42.77 40.23 39.58 39.35 38.84 40.63 39.99 41.14 42.83 45.23 46.13 43.80 43.26 42.25 43.35 46.75 44.26 43.05 41.15 41.12 43.44 43.23 41.68 42.30 45.86 46.22 45.74 46.24 46.41 46.08 45.72 45.20 45.53 45.53 46.46 46.39 46.39 44.03 43.63
45.23 45.48 44.76 43.86 41.75 39.55 38.52 38.27 38.35 38.88 39.84 40.53 40.04 40.92 43.14 43.51 42.85 41.82 42.01 43.15 41.66 41.88 40.29 41.16 42.64 42.37 41.23 41.98 43.61 46.51 45.14 46.03 45.31 44.42 43.82 43.84 43.84 43.81 43.79 44.32 44.21 44.70 43.57
44.55 43.16 43.39 42.04 42.25 40.85 38.29 37.94 38.12 38.02 38.24 39.25 41.84 43.10 43.53 43.70 42.85 41.92 41.59 41.69 43.35 41.76 40.63 42.25 43.07 41.39 41.42 41.80 44.05 42.31 43.01 45.13 44.91 43.59 42.54 41.83 41.83 41.89 42.46 43.01 43.47 43.38 43.47
42.48 43.80 43.20 42.21 41.92 40.43 38.32 38.19 38.12 38.76 41.35 41.49 41.48 41.42 42.08 43.62 43.16 42.34 41.73 42.43 43.31 42.61 42.71 43.24 42.37 42.17 43.20 44.47 42.93 43.21 44.64 45.49 44.08 42.34 41.49 41.52 41.89 42.34 42.96 42.81 42.98 42.92 43.43
41.39 43.01 43.18 41.24 41.29 39.56 40.17 42.12 41.32 40.57 40.64 40.69 40.33 39.97 41.19 41.99 41.58 41.87 43.00 43.88 43.13 43.28 43.35 44.42 44.52 44.35 43.94 45.00 45.37 45.44 45.35 44.53 43.29 42.07 41.43 41.88 42.51 42.52 42.05 42.76 41.82 42.31 42.60
41.56 41.81 43.29 42.51 42.01 43.22 42.72 41.80 41.71 41.04 40.02 39.19 39.71 40.44 39.89 39.32 40.27 39.63 40.28 41.75 42.04 41.57 43.46 44.71 44.51 44.35 43.99 44.37 44.73 44.75 44.49 43.69 42.67 42.57 42.02 41.87 42.11 42.29 42.07 42.59 42.51 42.49 40.94
42.89 42.75 42.59 42.51 42.33 43.17 42.56 42.21 41.08 40.32 39.84 39.17 38.72 39.27 42.00 39.43 39.29 38.99 39.02 39.03 39.42 40.24 43.64 43.08 42.92 43.46 43.26 43.64 43.79 43.29 43.46 43.39 43.22 43.16 43.04 42.81 42.11 41.92 41.88 42.40 42.19 40.55 39.21
39.40 42.72 42.60 43.13 42.22 41.41 41.76 41.15 40.53 41.98 41.55 40.45 39.51 39.27 38.72 38.38 39.33 39.43 39.43 39.66 39.73 42.20 43.24 43.26 43.28 43.66 43.85 44.18 43.80 43.26 42.57 43.48 43.82 43.59 42.93 42.69 42.49 41.30 40.24 39.26 38.69 37.33 36.85
43.07 42.31 42.63 42.19 42.27 41.76 41.95 42.22 42.16 41.06 40.75 41.73 41.82 40.85 39.73 39.29 39.38 39.57 40.12 41.98 43.07 43.37 44.03 43.64 43.49 44.22 44.40 44.00 43.79 43.26 43.32 43.42 43.39 43.45 43.15 42.69 41.64 39.31 37.20 36.31 36.43 36.31 36.05
43.76 43.73 43.82 43.53 43.70 43.71 44.01 43.27 42.94 42.27 41.88 42.34 43.30 42.78 43.05 40.66 40.71 40.81 41.68 44.36 43.74 43.57 44.13 44.53 44.94 45.10 44.90 44.71 44.16 43.93 43.77 42.95 43.52 42.75 40.99 40.06 39.19 38.10 36.95 37.16 37.11 36.48 36.18
45.11 42.55 43.17 45.40 45.22 45.01 44.70 43.78 43.12 42.46 42.35 42.40 42.29 41.68 43.79 44.13 43.92 43.85 44.55 44.34 44.41 44.29 44.53 45.07 45.57 45.72 45.39 45.20 44.87 44.71 44.28 42.89 40.98 39.91 39.29 38.70 37.79 37.37 36.80 36.51 37.08 37.08 36.56
44.89 45.50 42.11 46.22 45.67 45.31 44.84 44.48 43.99 43.49 42.81 42.63 42.47 39.74 35.13 43.71 43.29 43.63 44.10 44.36 44.30 44.68 45.18 45.56 45.87 46.14 46.12 44.33 43.11 42.07 41.12 40.07 39.79 39.48 39.16 38.77 38.97 38.26 38.59 40.26 40.80 41.10 40.26
44.78 45.24 46.08 46.00 46.07 45.79 45.17 45.09 44.49 44.06 43.81 43.39 43.64 42.97 36.32 44.24 43.96 44.13 44.56 45.01 45.20 45.55 45.73 45.79 45.55 44.07 43.69 43.28 42.69 41.39 40.41 40.48 40.54 40.41 40.20 40.63 42.29 42.97 42.18 41.77 40.94 40.07 39.26
44.74 44.67 44.57 45.71 46.30 44.17 45.76 45.74 45.00 44.72 44.24 44.21 44.06 43.76 43.59 42.99 43.09 43.50 43.78 44.17 44.11 44.60 43.91 44.43 43.80 43.21 44.33 44.91 44.00 42.78 42.31 41.81 41.87 42.02 41.92 42.50 42.84 42.48 41.56 40.25 40.20 39.81 39.52
44.19 44.45 43.82 44.15 45.80 46.12 46.13 45.65 45.47 42.49 44.48 44.33 42.49 42.43 43.02 42.35 44.12 43.29 42.78 42.67 41.79 41.76 41.63 41.75 42.17 41.71 42.14 42.81 44.04 43.27 42.49 43.39 44.29 43.57 43.92 43.84 43.24 40.68 40.14 39.32 38.58 38.79 38.22
42.43 43.37 43.12 43.37 43.37 43.79 43.76 44.14 44.61 44.97 44.54 43.85 44.15 44.57 43.24 44.10 43.82 43.34 42.90 42.08 40.85 38.91 39.08 39.11 38.44 39.35 38.73 38.55 37.98 37.98 33.64 33.10 37.22 35.36 41.54 42.29 40.94 39.57 38.31 37.44 37.33 37.19 37.47
42.98 41.96 41.73 42.37 42.41 42.82 43.28 43.75 44.11 44.72 44.93 44.91 44.73 44.31 43.97 42.95 42.13 41.10 40.00 38.93 37.89 37.06 36.01 35.36 35.44 35.60 36.60 36.75 35.55 33.21 33.49 33.60 36.04 33.87 40.03 39.85 38.85 37.81 37.13 36.75 36.90 35.39 35.12
MSLP
1022.04 1021.76 1021.55 1021.20 1020.81 1020.41 1019.96 1019.52 1019.14 1018.78 1018.44 1018.15 1017.84 1017.46 1017.06 1016.59 1016.22 1015.85 1015.58 1015.14 1014.77 1014.38 1013.88 1013.42 1013.09 1012.73 1012.40 1011.96 1011.45 1010.89 1010.33 1009.66 1009.12 1008.45 1008.74 1009.01 1009.48 1009.65 1009.92 1010.20 1010.31 1010.57 1010.76
1022.16 1021.80 1021.45 1021.08 1020.64 1020.23 1019.75 1019.21 1018.87 1018.48 1018.09 1017.88 1017.58 1017.32 1017.01 1016.59 1016.29 1015.99 1015.68 1015.30 1014.89 1014.41 1014.04 1013.61 1013.23 1012.82 1012.55 1012.16 1011.76 1011.32 1010.69 1009.99 1008.87 1008.86 1009.25 1009.90 1010.43 1010.66 1010.89 1011.03 1011.39 1011.43 1011.45
1022.18 1021.83 1021.39 1020.88 1020.42 1019.97 1019.44 1018.97 1018.55 1018.28 1017.94 1017.58 1017.41 1017.16 1016.85 1016.62 1016.32 1016.03 1015.73 1015.50 1015.17 1014.74 1014.36 1014.01 1013.59 1013.12 1012.70 1012.36 1011.97 1011.63 1011.10 1010.39 1009.77 1009.33 1010.11 1010.11 1011.11 1011.37 1011.53 1011.51 1011.83 1011.93 1011.79
1022.17 1021.73 1021.26 1020.70 1020.28 1019.82 1019.29 1018.79 1018.40 1018.06 1017.78 1017.50 1017.26 1016.97 1016.72 1016.55 1016.32 1016.04 1015.80 1015.57 1015.23 1014.85 1014.53 1014.20 1013.77 1013.37 1012.96 1012.56 1012.13 1011.75 1011.36 1010.69 1010.13 1009.76 1010.39 1011.03 1011.45 1011.77 1011.71 1012.07 1012.54 1012.80 1012.79
1021.98 1021.47 1021.00 1020.48 1020.05 1019.61 1019.10 1018.62 1018.25 1017.87 1017.67 1017.43 1017.14 1016.93 1016.78 1016.58 1016.27 1016.01 1015.69 1015.50 1015.24 1014.89 1014.74 1014.45 1014.11 1013.60 1013.23 1012.82 1012.28 1011.80 1011.42 1011.01 1010.56 1010.33 1010.85 1011.29 1011.69 1011.83 1012.15 1012.52 1013.07 1013.47 1013.57
1021.83 1021.34 1020.87 1020.39 1019.95 1019.55 1019.06 1018.74 1018.37 1018.05 1017.70 1017.42 1017.24 1017.15 1016.98 1016.63 1016.27 1015.83 1015.54 1015.40 1015.20 1015.14 1015.11 1014.73 1014.31 1013.82 1013.34 1012.93 1012.35 1011.88 1011.64 1011.36 1011.08 1010.89 1011.19 1011.59 1011.95 1012.11 1012.43 1012.83 1013.35 1013.72 1013.96
1021.68 1021.16 1020.73 1020.33 1020.02 1019.68 1019.22 1018.82 1018.56 1018.24 1017.87 1017.58 1017.48 1017.44 1017.25 1016.82 1016.26 1015.64 1015.33 1015.31 1015.25 1015.27 1015.21 1014.99 1014.55 1014.06 1013.51 1013.00 1012.52 1011.92 1011.66 1011.45 1011.35 1011.28 1011.29 1011.61 1012.10 1012.34 1012.57 1013.09 1013.40 1013.69 1014.41
1021.53 1021.06 1020.50 1020.24 1020.13 1019.86 1019.48 1019.17 1018.66 1018.33 1018.11 1017.96 1017.81 1017.69 1017.53 1017.02 1016.44 1015.92 1015.57 1015.45 1015.45 1015.36 1015.31 1015.15 1014.75 1014.16 1013.59 1013.06 1012.50 1012.06 1011.68 1011.43 1011.40 1011.22 1011.38 1011.81 1012.08 1012.45 1012.81 1013.08 1013.61 1014.27 1014.63
1021.58 1021.02 1020.59 1020.30 1020.31 1020.12 1019.79 1019.55 1019.26 1019.00 1018.58 1018.32 1018.04 1017.79 1017.59 1017.21 1016.83 1016.28 1015.85 1015.63 1015.55 1015.55 1015.49 1015.24 1014.87 1014.30 1013.71 1013.02 1012.47 1012.09 1011.82 1011.79 1011.74 1011.78 1012.11 1012.35 1012.69 1012.96 1013.05 1013.37 1014.12 1014.38 1014.59
1021.56 1021.09 1020.84 1020.42 1020.27 1020.28 1020.28 1020.02 1019.85 1019.50 1019.26 1018.78 1018.42 1018.07 1017.73 1017.49 1017.19 1016.66 1016.02 1015.74 1015.91 1015.96 1015.70 1015.45 1015.03 1014.57 1013.90 1013.24 1012.72 1012.37 1012.26 1012.49 1012.51 1012.67 1012.90 1013.25 1013.48 1013.61 1013.65 1013.80 1014.06 1014.34 1014.61
1021.56 1021.16 1020.80 1020.73 1020.60 1020.66 1020.58 1020.37 1020.29 1019.98 1019.53 1019.18 1018.80 1018.37 1018.08 1017.83 1017.52 1016.95 1016.46 1016.29 1016.37 1016.31 1016.20 1015.84 1015.40 1014.86 1014.18 1013.66 1013.25 1013.05 1013.14 1013.26 1013.36 1013.49 1013.92 1014.26 1014.44 1014.49 1014.61 1014.58 1014.48 1014.46 1014.67
1021.53 1021.26 1021.10 1021.13 1021.15 1021.03 1020.87 1020.85 1020.68 1020.29 1019.93 1019.48 1018.99 1018.46 1018.14 1017.98 1017.69 1017.27 1016.91 1016.72 1016.74 1016.67 1016.48 1016.20 1015.78 1015.25 1014.71 1014.31 1014.10 1014.00 1013.97 1014.00 1014.21 1014.52 1014.95 1015.27 1015.38 1015.50 1015.52 1015.43 1015.31 1015.06 1015.20
1021.61 1021.39 1021.39 1021.56 1021.56 1021.52 1021.43 1021.25 1021.03 1020.67 1020.24 1019.79 1019.26 1018.77 1018.47 1018.14 1017.91 1017.64 1017.37 1017.26 1017.17 1016.94 1016.73 1016.40 1015.95 1015.59 1015.28 1015.05 1014.88 1014.85 1014.85 1014.91 1015.14 1015.47 1015.91 1016.15 1016.28 1016.25 1016.10 1015.95 1015.80 1015.80 1015.92
1022.04 1021.89 1021.85 1021.95 1021.96 1021.87 1021.70 1021.30 1021.18 1020.95 1020.53 1020.06 1019.59 1019.20 1018.91 1018.60 1018.43 1018.13 1017.84 1017.70 1017.57 1017.27 1016.91 1016.63 1016.34 1016.08 1015.91 1015.83 1015.73 1015.82 1015.86 1016.00 1016.20 1016.42 1016.61 1016.80 1016.81 1016.71 1016.67 1016.68 1016.63 1016.59 1016.46
1022.49 1022.45 1022.35 1022.28 1022.12 1021.86 1021.70 1021.53 1021.28 1021.15 1020.96 1020.54 1020.08 1019.68 1019.47 1019.29 1019.17 1018.85 1018.47 1018.28 1018.04 1017.76 1017.29 1017.02 1016.82 1016.69 1016.62 1016.68 1016.76 1016.82 1016.87 1016.91 1016.95 1017.12 1017.25 1017.37 1017.43 1017.48 1017.52 1017.46 1017.36 1017.32 1017.26
1022.92 1022.86 1022.70 1022.51 1022.29 1022.00 1021.76 1021.49 1021.30 1021.27 1021.12 1020.75 1020.45 1020.17 1019.93 1019.76 1019.55 1019.32 1019.07 1018.77 1018.48 1018.13 1017.89 1017.82 1017.73 1017.65 1017.58 1017.64 1017.69 1017.84 1017.84 1017.80 1017.83 1017.83 1017.86 1018.00 1018.14 1018.14 1018.12 1018.12 1018.09 1018.19 1018.35
1023.44 1023.24 1022.98 1022.74 1022.54 1022.31 1022.04 1021.78 1021.50 1021.38 1021.32 1020.99 1020.69 1020.46 1020.22 1019.99 1019.95 1019.76 1019.53 1019.27 1019.01 1018.68 1018.69 1018.67 1018.56 1018.44 1018.34 1018.31 1018.39 1018.45 1018.56 1018.62 1018.57 1018.60 1018.70 1018.78 1018.75 1018.75 1018.76 1018.90 1018.93 1018.88 1019.01
1023.66 1023.52 1023.30 1023.08 1022.82 1022.55 1022.31 1022.07 1021.90 1021.74 1021.57 1021.26 1020.99 1020.85 1020.65 1020.50 1020.34 1020.18 1019.96 1019.69 1019.66 1019.60 1019.41 1019.29 1019.16 1019.06 1018.95 1019.05 1019.18 1019.19 1019.24 1019.21 1019.17 1019.22 1019.28 1019.31 1019.37 1019.49 1019.60 1019.67 1019.61 1019.60 1019.61
1024.06 1023.77 1023.54 1023.30 1023.03 1022.79 1022.54 1022.38 1022.30 1022.18 1021.95 1021.75 1021.53 1021.40 1021.28 1021.15 1020.93 1020.78 1020.63 1020.45 1020.41 1020.26 1020.08 1019.91 1019.78 1019.68 1019.64 1019.65 1019.73 1019.79 1019.72 1019.78 1019.84 1019.86 1019.97 1020.04 1020.15 1020.16 1020.34 1020.32 1020.18 1020.00 1019.85
1024.35 1024.07 1023.70 1023.48 1023.31 1023.13 1022.98 1022.78 1022.72 1022.67 1022.62 1022.45 1022.30 1022.29 1022.04 1021.69 1021.61 1021.56 1021.32 1021.17 1021.04 1020.91 1020.71 1020.50 1020.40 1020.38 1020.37 1020.36 1020.36 1020.40 1020.48 1020.60 1020.76 1020.82 1020.92 1020.91 1020.87 1020.73 1020.71 1020.54 1020.32 1020.20 1020.07
1024.67 1024.44 1024.11 1023.89 1023.76 1023.60 1023.48 1023.42 1023.33 1023.28 1023.31 1023.24 1023.20 1023.10 1022.69 1022.47 1022.43 1022.27 1022.11 1021.89 1021.69 1021.53 1021.37 1021.15 1021.02 1021.00 1021.00 1021.04 1021.08 1021.16 1021.29 1021.34 1021.29 1021.25 1021.21 1021.10 1020.88 1020.79 1020.52 1020.25 1020.08 1019.93 1019.80
1025.16 1024.96 1024.61 1024.45 1024.24 1024.11 1024.06 1023.91 1023.89 1023.83 1023.90 1023.88 1023.81 1023.55 1023.32 1023.09 1022.96 1022.97 1022.72 1022.58 1022.33 1022.11 1021.84 1021.62 1021.54 1021.53 1021.47 1021.50 1021.62 1021.71 1021.71 1021.65 1021.53 1021.41 1021.26 1021.08 1020.83 1020.55 1020.26 1019.99 1019.77 1019.61 1019.45
1025.87 1025.51 1025.19 1025.06 1024.84 1024.77 1024.61 1024.52 1024.44 1024.36 1024.44 1024.39 1024.36 1024.28 1024.04 1023.83 1023.76 1023.59 1023.43 1023.31 1022.99 1022.66 1022.46 1022.17 1022.01 1021.93 1021.77 1021.68 1021.66 1021.66 1021.63 1021.52 1021.37 1021.23 1021.16 1021.04 1020.89 1020.66 1020.33 1020.20 1019.99 1019.88 1019.78
1026.42 1026.11 1025.74 1025.35 1025.40 1025.33 1025.25 1025.14 1025.09 1025.07 1025.00 1025.01 1024.98 1024.91 1024.79 1024.65 1024.48 1024.31 1024.07 1023.84 1023.67 1023.41 1023.24 1023.11 1022.98 1022.81 1022.55 1022.28 1022.02 1021.83 1021.65 1021.43 1021.28 1021.13 1021.01 1021.13 1021.04 1020.81 1020.52 1020.34 1020.33 1020.24 1020.30
1026.75 1026.38 1026.09 1026.02 1025.90 1025.74 1025.59 1025.68 1025.66 1025.62 1025.58 1025.58 1025.60 1025.55 1025.51 1025.36 1025.21 1025.08 1024.75 1024.56 1024.53 1024.49 1024.32 1024.11 1023.93 1023.60 1023.34 1023.00 1022.62 1022.27 1021.96 1021.60 1021.45 1021.37 1021.22 1021.17 1021.27 1021.23 1021.25 1021.19 1021.11 1021.05 1021.07
1026.96 1026.77 1026.60 1026.51 1026.45 1026.35 1026.28 1026.39 1026.49 1026.47 1026.44 1026.46 1026.46 1026.45 1026.41 1026.38 1026.34 1026.16 1025.91 1025.74 1025.60 1025.51 1025.38 1025.17 1024.87 1024.43 1023.95 1023.64 1023.42 1022.93 1022.48 1022.18 1021.97 1021.78 1021.59 1021.63 1021.82 1021.98 1021.95 1021.94 1021.86 1021.93 1021.96
Wind_Speed
6 5 6 6 6 6 5 6 6 5 6 6 6 6 6 6 5 5 6 7 7 6 7 5 6 6 5 5 6 5 5 4 4 1 2 5 6 9 10 9 9 8 9
6 6 6 6 6 6 6 6 6 7 6 6 6 6 5 5 5 5 6 7 7 6 7 7 6 5 6 5 5 6 6 7 4 5 4 4 6 8 7 8 6 6 7
6 6 7 7 6 7 7 7 6 6 6 6 4 5 4 4 5 4 4 5 5 5 6 6 7 8 7 6 6 6 6 5 5 4 6 4 3 5 6 6 6 6 7
6 6 7 7 7 7 7 6 6 5 5 6 4 4 2 3 4 5 4 5 5 5 5 6 7 8 8 8 5 6 6 6 5 4 6 6 4 4 3 6 5 6 6
6 6 7 7 7 7 6 6 6 6 5 4 2 2 4 4 3 5 4 4 5 5 6 6 6 10 14 11 5 6 6 5 4 4 6 5 4 3 5 3 4 4 6
7 7 7 7 7 7 6 7 6 6 5 3 3 4 6 4 10 10 7 4 4 5 5 6 7 10 10 13 9 9 5 4 3 2 5 6 3 5 4 5 4 2 2
6 6 6 6 6 7 6 6 6 6 3 1 2 5 6 6 13 12 7 3 2 4 6 6 7 6 9 6 7 9 5 6 3 2 5 4 6 3 5 5 1 3 3
6 6 6 5 6 6 6 6 5 3 3 4 4 4 5 6 13 12 5 1 2 4 4 6 6 9 8 8 5 4 4 3 1 0 4 5 5 5 3 2 4 5 3
7 7 6 5 5 5 6 7 6 6 5 4 3 4 4 5 14 13 7 3 1 3 5 6 7 9 12 12 5 5 5 8 15 21 19 19 16 9 5 6 4 3 2
8 8 6 2 3 4 6 6 4 3 5 4 5 6 6 6 11 15 9 2 1 3 5 6 10 11 12 11 5 5 8 7 8 9 8 12 11 11 13 5 3 2 3
6 6 4 2 5 5 4 5 5 5 5 5 5 5 5 6 7 12 11 4 3 3 4 5 6 13 11 11 10 8 8 8 12 10 9 7 8 8 7 6 6 2 2
5 5 3 5 5 5 6 5 5 5 5 5 5 4 4 5 8 9 8 7 5 3 3 4 5 10 11 11 9 13 13 10 7 8 8 7 7 6 6 6 7 8 7
6 4 4 5 5 5 5 5 4 5 5 5 5 5 5 5 5 9 8 7 8 3 3 6 9 10 9 10 16 14 11 7 8 8 6 6 5 5 5 4 6 10 11
6 5 4 5 4 4 3 3 3 4 5 5 5 5 4 5 5 5 4 3 6 5 6 5 8 8 12 10 10 10 8 7 6 6 6 5 5 6 6 4 4 4 5
5 5 4 3 3 2 3 2 3 2 3 5 4 4 4 4 4 5 5 4 3 5 4 6 7 7 7 7 7 7 7 6 6 5 5 6 5 5 4 3 3 4 6
5 4 3 3 3 3 3 4 3 3 6 9 8 5 3 5 7 8 8 8 9 10 5 6 7 6 6 6 6 6 6 7 5 5 5 5 5 4 5 5 5 5 5
5 4 3 4 4 4 4 5 5 4 5 7 11 9 7 4 8 8 8 10 11 8 7 6 5 6 5 6 6 6 6 5 5 5 5 5 5 6 6 5 4 4 4
5 9 4 4 3 4 4 4 4 5 5 4 5 9 12 10 10 9 8 6 7 7 5 5 5 5 5 6 5 5 5 4 5 5 5 5 5 4 4 5 4 3 3
5 4 3 3 4 5 4 5 5 5 5 5 6 7 10 11 12 12 10 6 6 5 5 5 5 5 5 5 5 5 5 5 4 4 4 4 4 4 4 4 3 4 2
5 9 6 4 4 5 5 5 5 5 6 6 7 6 5 6 7 7 6 5 5 5 5 5 5 5 5 5 4 4 4 5 5 5 5 4 3 3 3 3 3 3 3
5 6 8 6 6 5 5 5 5 5 6 6 6 5 6 6 5 5 5 6 5 5 5 4 4 4 4 4 4 4 5 4 4 3 3 2 3 3 3 3 3 3 3
6 7 6 6 6 7 6 6 6 6 6 6 5 6 8 6 6 5 5 5 4 4 4 4 4 4 4 4 4 4 4 4 3 2 2 2 4 4 4 4 4 1 1
6 7 5 5 5 7 7 6 5 6 7 6 5 5 5 6 5 5 6 6 5 6 5 5 5 4 4 4 3 3 3 1 2 1 3 4 4 4 4 2 4 5 4
4 4 4 4 4 4 5 5 6 8 6 5 5 5 5 5 7 7 6 5 5 6 7 6 6 7 5 5 4 3 3 3 3 3 4 3 4 5 4 5 5 6 5
4 4 4 4 4 4 5 5 5 4 5 5 6 7 6 7 8 8 7 7 7 7 8 8 7 8 8 8 8 8 6 5 2 2 1 4 6 8 6 5 5 5 6
4 4 4 4 4 5 5 6 6 6 7 7 6 7 7 7 7 8 8 8 8 8 8 7 9 11 10 8 8 7 9 9 8 7 5 5 6 5 5 6 7 5 6
Wind_Direction
340 328 321 314 316 315 316 307 301 293 288 289 300 312 316 326 349 349 339 330 333 332 338 324 341 337 341 331 331 337 323 312 320 121 52 77 67 79 73 63 64 67 70
321 323 326 315 316 314 304 299 291 286 293 288 302 309 323 356 348 345 343 340 346 357 352 356 355 351 350 345 341 350 327 334 285 76 93 80 70 77 81 84 75 68 70
323 320 314 313 317 311 306 302 304 304 304 318 326 322 334 351 332 331 341 340 338 354 351 346 345 345 351 350 348 347 340 327 330 82 110 97 77 97 95 85 68 65 61
310 312 312 319 316 306 303 305 312 315 325 338 327 313 336 348 329 337 334 339 334 342 339 338 339 339 346 347 348 336 340 349 334 104 110 123 119 117 88 86 74 46 48
318 323 320 314 305 306 318 326 327 345 348 331 349 17 353 346 328 318 308 315 323 338 351 347 334 336 352 353 339 338 340 349 342 73 112 124 134 134 117 95 93 76 54
319 318 319 319 322 329 339 344 348 354 359 29 51 20 0 335 328 322 302 287 320 11 354 344 335 342 347 351 338 341 350 338 349 28 115 127 111 112 118 130 126 177 94
320 323 321 322 340 350 347 0 1 358 353 339 30 22 358 338 343 330 289 244 20 30 9 347 343 338 344 334 327 334 350 335 325 294 129 125 133 150 141 145 198 67 78
327 318 317 341 360 360 359 355 347 350 342 347 8 357 354 340 351 357 353 218 78 30 15 348 336 332 333 339 314 331 342 335 297 230 110 96 100 115 108 102 92 89 104
336 325 338 17 26 14 358 348 352 4 15 12 351 19 351 353 358 357 360 273 135 7 0 347 344 338 340 344 345 2 46 70 79 81 78 73 62 56 102 108 108 128 113
329 333 324 40 81 32 7 16 346 14 12 5 8 0 7 357 359 350 354 11 54 12 354 347 345 350 347 353 9 18 80 67 81 70 54 51 49 48 50 50 146 121 114
317 332 4 26 66 40 34 23 7 12 5 359 2 345 357 4 355 351 353 35 52 12 1 343 347 350 2 14 35 57 66 75 67 69 64 55 49 46 42 35 31 36 97
318 359 12 35 35 44 53 25 15 10 358 344 339 342 351 351 360 357 2 55 48 28 354 344 344 5 25 35 54 62 60 65 68 67 62 53 49 43 39 44 48 56 54
331 16 65 50 41 31 32 21 11 354 349 347 343 342 347 351 356 3 15 50 39 19 3 9 10 15 32 52 51 51 55 59 65 68 64 59 51 46 41 44 57 76 68
19 33 56 52 43 31 4 358 19 360 348 345 339 343 348 357 1 355 15 27 14 16 9 12 26 46 54 51 53 48 53 55 66 73 67 58 58 48 46 23 62 55 76
48 35 49 35 0 353 36 356 356 1 347 339 349 357 14 21 2 16 31 29 11 14 7 32 36 39 47 48 50 47 48 49 55 53 61 61 58 59 52 19 37 57 71
40 40 23 19 1 359 353 335 300 324 10 13 17 20 29 42 39 40 39 39 36 23 41 43 46 45 46 41 50 59 49 52 47 57 57 58 63 67 63 50 42 45 51
44 18 0 13 17 3 0 1 360 7 16 8 15 32 40 63 60 48 49 55 43 41 52 44 43 35 33 41 51 55 59 46 49 61 64 56 63 54 51 44 38 40 37
28 25 18 23 3 355 360 7 14 20 11 356 348 28 42 58 57 54 41 45 46 41 38 39 39 35 38 49 53 53 53 49 50 53 57 57 62 67 56 45 35 50 43
18 5 355 340 351 3 19 30 30 27 20 25 22 25 24 47 49 46 40 50 52 41 27 35 31 37 45 52 52 53 52 50 52 55 51 63 53 65 56 38 26 36 36
9 9 6 16 23 28 29 32 35 35 35 30 32 23 17 47 52 44 35 37 38 30 20 35 36 45 48 49 47 41 46 44 42 42 44 46 36 41 37 10 9 2 3
359 15 15 41 40 35 36 39 32 40 43 39 38 22 26 60 48 40 35 33 31 33 27 31 28 34 44 50 54 56 61 61 62 68 59 27 2 357 332 305 299 302 286
15 30 30 34 35 41 42 44 47 52 52 52 39 31 20 46 38 39 30 29 20 18 11 14 32 33 41 57 72 73 71 67 50 45 22 343 332 327 315 304 322 301 249
19 12 14 27 22 39 59 45 37 42 52 51 40 31 23 35 37 34 30 23 21 26 15 26 30 34 35 57 80 105 104 142 232 252 306 322 325 323 320 345 5 21 38
11 3 359 1 32 32 34 23 46 55 58 51 37 33 34 28 37 36 30 22 21 25 23 21 21 23 11 11 5 356 329 307 285 284 281 291 334 359 29 48 40 47 56
17 357 6 10 8 4 26 56 58 49 44 38 37 40 36 37 39 34 27 26 30 29 27 23 18 17 24 22 21 22 11 20 334 306 13 80 74 56 48 43 35 45 51
11 39 40 43 38 43 51 55 48 40 44 48 47 45 42 40 38 36 30 30 33 32 25 22 14 15 17 21 14 16 36 37 39 41 65 65 64 51 51 49 42 46 56